Location: Berlin
(52.5170°N, 13.3889°E)
Time: 22:31:55
(UTC+02:00)

LES 1 - Pass Details

Date: 25 June 2025
Orbit: 2779 x 2808 km, 32.1° (Epoch: 12 July)

Event Time Altitude Azimuth Distance (km) Brightness Sun altitude
Rises 22:28:28 0° 233° (SW) 6,571 12.3 -6.4°
Reaches altitude 10° 22:33:16 10° 225° (SW) 5,550 11.8 -6.9°
Maximum altitude 22:46:25 33° 168° (SSE) 3,971 10.7 -8.0°
Drops below altitude 10° 22:59:34 10° 112° (ESE) 5,558 11.4 -9.0°
Sets 23:04:21 0° 103° (ESE) 6,581 11.9 -9.4°
